User: anonymous   Login
Location: Capannuccia
(43.7000°N, 11.3000°E)
Time: 03:20:26
(UTC+00:00)
Language:

STARLINK-2758 - Orbit

View from above orbital plane
View from above orbital plane
View from above satellite
View from above satellite

Ground track
Ground track

The orbit data is extracted from the following two-line orbital elements,

1 48638C 21044A   21293.83316479  .00003999  00000-0  26803-3 0  2937
2 48638  53.0539 103.1286 0001800  75.5323 243.8419 15.06383190    19
Epoch (UTC): 20 October 2021 19:59:45
Eccentricity: 0.0001800
inclination: 53.0539°
perigee height: 546 km
apogee height: 548 km
right ascension of ascending node: 103.1286°
argument of perigee: 75.5323°
revolutions per day: 15.06383190
mean anomaly at epoch: 243.8419°
orbit number at epoch: 1

The dashed part of the orbit path shows where the satellite is in the earth's shadow,  

DLR